Terminal Aerodrome Forecast
Issued by NWS Pueblo, CO

Home | Current Version | Previous Version | Text Only | Print | Product List | Glossary On
Versions: 1 2 3 4 5 6 7 8 9 10 11 12 13 14 15 16 17 18 19 20 21 22 23 24 25 26 27 28 29 30 31 32 33 34 35 36 37 38 39 40 41 42 43 44 45 46 47 48
000
FTUS45 KPUB 011141
TAFCOS
TAF
KCOS 011141Z 0112/0212 VRB05KT P6SM SCT002 SCT040 BKN080
     FM011500 15006KT P6SM VCSH SCT030 SCT060 BKN100
     FM011900 16010KT P6SM VCTS SCT040CB BKN100
     FM020300 VRB06KT P6SM SCT040 BKN120=

USA.gov is the U.S. government's official web portal to all federal, state and local government web resources and services.